MMS 3

Last updated on Tue Oct 28 2025 00:02:40 GMT+0000 (Coordinated Universal Time)

1 40484U 15011C 25300.50002315 -.00000682 00000+0 00000+0 0 9999 2 40484 68.1505 352.4283 8558729 162.3156 324.9374 0.28332995 1376
UTC large
Height (km)
Speed (km/s)
/
Latitude / Longitude
Inclination (degrees)
Orbital Period (minutes)
Azimuth
Elevation
Range (km)
Doppler Factor

Next 0 passes for location: London (51.5072 / 0.1276)

Sorry there are no passes over London.